Location: Newark
(48.2861°N, 1.9308°W)
Time: 07:39:51
(UTC+00:00)

Envisat - Visible Passes

Search period start: 17 October 2019 00:00
Search period end: 27 October 2019 00:00
Orbit: 764 x 766 km, 98.1° (Epoch: 17 October)

Date Brightness Start Highest point End Pass type
(mag) Time Alt. Az. Time Alt. Az. Time Alt. Az.
17 Oct 3.0 17:43:46 10° SSE 17:48:46 61° ENE 17:53:48 10° N visible
17 Oct 5.6 19:24:32 10° SW 19:28:13 20° W 19:31:56 10° NW visible
18 Oct 6.2 05:50:08 10° NE 05:53:16 16° E 05:56:23 10° SE visible
18 Oct 4.4 18:46:23 10° SSW 18:51:08 40° W 18:55:56 10° NNW visible
19 Oct 3.1 18:09:09 10° SSE 18:14:15 82° WSW 18:19:22 10° NNW visible
19 Oct 6.2 19:52:16 10° WSW 19:54:04 12° W 19:55:53 10° WNW visible
20 Oct 5.3 19:12:43 10° SSW 19:16:50 24° W 19:20:59 10° NW visible
21 Oct 6.4 05:39:32 10° ENE 05:41:51 13° E 05:44:09 10° ESE visible
21 Oct 4.0 18:34:54 10° S 18:39:48 49° W 18:44:46 10° NNW visible
22 Oct 3.0 17:57:54 10° SSE 18:02:59 82° ENE 18:08:05 10° NNW visible
22 Oct 6.0 19:39:49 10° WSW 19:42:39 15° W 19:45:29 10° NW visible
23 Oct 5.9 06:03:47 10° NE 06:07:42 22° E 06:11:34 10° SE visible
23 Oct 5.0 19:01:02 10° SSW 19:05:28 30° W 19:09:57 10° NNW visible
24 Oct 6.7 05:29:58 10° E 05:30:25 10° E 05:30:51 10° E visible
24 Oct 3.6 18:23:29 10° S 18:28:31 61° W 18:33:33 10° NNW visible
25 Oct 3.0 17:46:42 10° SSE 17:51:44 67° ENE 17:56:47 10° N visible
25 Oct 5.7 19:27:46 10° SW 19:31:14 18° W 19:34:45 10° NW visible
26 Oct 6.1 05:52:54 10° NE 05:56:18 18° E 05:59:40 10° SE visible
26 Oct 4.6 18:49:27 10° SSW 18:54:07 37° W 18:58:51 10° NNW visible
